• Em Portugal
  • Lista de países
  • Para 7 dias
  • Temperatura da água
  • Mapas de satélite
  • Mapa do tempo
  • Widgets de tempo
  • user-avatar
    Iniciar Sessão

    Previsão horária em Borowno

    Hoje, 17 Julho, Terça-feira

    Tempo Temperatura Precipitação Vento Pressão Humidade
    00:00 +16°C° 0,3 mm 1 m/s 715 mmHg 83%
    01:00 +15°C° 0,3 mm 1 m/s 715 mmHg 85%
    02:00 +15°C° 0,1 mm 1 m/s 715 mmHg 85%
    03:00 +15°C° 0,1 mm 1 m/s 714 mmHg 86%
    04:00 +15°C° 0,1 mm 1 m/s 714 mmHg 87%
    05:00 +16°C° 0 mm 2 m/s 714 mmHg 85%
    06:00 +17°C° 0 mm 2 m/s 715 mmHg 82%
    07:00 +18°C° 0 mm 3 m/s 715 mmHg 80%
    08:00 +19°C° 0,4 mm 3 m/s 715 mmHg 79%
    09:00 +19°C° 0,4 mm 4 m/s 715 mmHg 78%
    10:00 +20°C° 0,4 mm 5 m/s 715 mmHg 77%
    11:00 +20°C° 0,7 mm 5 m/s 715 mmHg 79%
    12:00 +19°C° 0,7 mm 5 m/s 715 mmHg 80%
    13:00 +19°C° 0,7 mm 5 m/s 715 mmHg 82%
    14:00 +19°C° 0,7 mm 5 m/s 715 mmHg 83%
    15:00 +17°C° 0,7 mm 5 m/s 715 mmHg 85%
    16:00 +18°C° 0,7 mm 4 m/s 715 mmHg 87%
    17:00 +17°C° 0,9 mm 4 m/s 715 mmHg 89%
    18:00 +17°C° 0,9 mm 4 m/s 715 mmHg 91%
    19:00 +17°C° 0,9 mm 3 m/s 715 mmHg 92%
    20:00 +16°C° 0,6 mm 3 m/s 715 mmHg 93%
    21:00 +16°C° 0,6 mm 3 m/s 715 mmHg 94%
    22:00 +16°C° 0,6 mm 3 m/s 715 mmHg 95%
    23:00 +16°C° 0,2 mm 3 m/s 715 mmHg 95%

    Amanhã, 18 Julho, Quarta-feira

    Tempo Temperatura Precipitação Vento Pressão Humidade
    00:00 +16°C° 0,2 mm 3 m/s 715 mmHg 95%
    01:00 +16°C° 0,2 mm 3 m/s 715 mmHg 95%
    02:00 +16°C° 0,1 mm 3 m/s 715 mmHg 95%
    03:00 +16°C° 0,1 mm 3 m/s 715 mmHg 95%
    04:00 +16°C° 0,1 mm 3 m/s 715 mmHg 95%
    05:00 +15°C° 0,1 mm 4 m/s 715 mmHg 93%
    06:00 +16°C° 0,1 mm 5 m/s 715 mmHg 91%
    07:00 +16°C° 0,1 mm 5 m/s 716 mmHg 89%
    08:00 +17°C° 0,4 mm 6 m/s 716 mmHg 87%
    09:00 +17°C° 0,4 mm 6 m/s 716 mmHg 84%
    10:00 +19°C° 0,4 mm 6 m/s 716 mmHg 82%
    11:00 +17°C° 1,2 mm 6 m/s 716 mmHg 84%
    12:00 +17°C° 1,2 mm 6 m/s 717 mmHg 85%
    13:00 +17°C° 1,2 mm 6 m/s 717 mmHg 87%
    14:00 +17°C° 0,5 mm 5 m/s 717 mmHg 86%
    15:00 +17°C° 0,5 mm 5 m/s 717 mmHg 85%
    16:00 +17°C° 0,5 mm 5 m/s 717 mmHg 84%
    17:00 +18°C° 0,2 mm 4 m/s 717 mmHg 86%
    18:00 +18°C° 0,2 mm 3 m/s 717 mmHg 87%
    19:00 +18°C° 0,2 mm 2 m/s 717 mmHg 88%
    20:00 +17°C° 0,2 mm 2 m/s 717 mmHg 90%
    21:00 +17°C° 0,2 mm 2 m/s 718 mmHg 92%
    22:00 +16°C° 0,2 mm 2 m/s 718 mmHg 93%
    23:00 +16°C° 0,1 mm 2 m/s 718 mmHg 93%

    Depois de amanhã, 19 Julho, Quinta-feira

    Tempo Temperatura Precipitação Vento Pressão Humidade
    00:00 +16°C° 0,1 mm 2 m/s 718 mmHg 93%
    01:00 +16°C° 0,1 mm 3 m/s 718 mmHg 93%
    02:00 +16°C° 0 mm 3 m/s 718 mmHg 93%
    03:00 +16°C° 0 mm 3 m/s 718 mmHg 93%
    04:00 +14°C° 0 mm 3 m/s 718 mmHg 94%
    05:00 +16°C° 0 mm 3 m/s 718 mmHg 91%
    06:00 +16°C° 0 mm 3 m/s 718 mmHg 89%
    07:00 +17°C° 0 mm 4 m/s 718 mmHg 87%
    08:00 +17°C° 0,1 mm 4 m/s 718 mmHg 83%
    09:00 +18°C° 0,1 mm 4 m/s 719 mmHg 80%
    10:00 +19°C° 0,1 mm 4 m/s 719 mmHg 77%
    11:00 +19°C° 0 mm 4 m/s 719 mmHg 75%
    12:00 +20°C° 0 mm 4 m/s 719 mmHg 73%
    13:00 +20°C° 0 mm 4 m/s 719 mmHg 71%
    14:00 +21°C° 0 mm 4 m/s 719 mmHg 69%
    15:00 +22°C° 0 mm 4 m/s 719 mmHg 67%
    16:00 +22°C° 0 mm 4 m/s 719 mmHg 64%
    17:00 +22°C° 0,1 mm 3 m/s 719 mmHg 69%
    18:00 +21°C° 0,1 mm 3 m/s 719 mmHg 74%
    19:00 +20°C° 0,1 mm 2 m/s 719 mmHg 79%
    20:00 +19°C° 0 mm 2 m/s 719 mmHg 84%
    21:00 +17°C° 0 mm 2 m/s 719 mmHg 88%
    22:00 +16°C° 0 mm 2 m/s 719 mmHg 93%
    23:00 +16°C° 0 mm 2 m/s 719 mmHg 94%

    20 Julho, Sexta-feira

    Tempo Temperatura Precipitação Vento Pressão Humidade
    00:00 +15°C° 0 mm 2 m/s 719 mmHg 95%
    01:00 +15°C° 0 mm 2 m/s 719 mmHg 95%
    02:00 +15°C° 0 mm 2 m/s 719 mmHg 95%
    03:00 +14°C° 0 mm 1 m/s 719 mmHg 95%
    04:00 +14°C° 0 mm 1 m/s 718 mmHg 94%
    05:00 +15°C° 0 mm 2 m/s 719 mmHg 89%
    06:00 +16°C° 0 mm 2 m/s 719 mmHg 83%
    07:00 +18°C° 0 mm 2 m/s 719 mmHg 77%
    08:00 +19°C° 0 mm 2 m/s 719 mmHg 69%
    09:00 +21°C° 0 mm 2 m/s 719 mmHg 61%
    10:00 +23°C° 0 mm 2 m/s 720 mmHg 53%
    11:00 +24°C° 0 mm 2 m/s 719 mmHg 50%
    12:00 +25°C° 0 mm 2 m/s 719 mmHg 46%
    13:00 +26°C° 0 mm 2 m/s 719 mmHg 43%
    14:00 +26°C° 0 mm 2 m/s 719 mmHg 42%
    15:00 +26°C° 0 mm 2 m/s 719 mmHg 42%
    16:00 +26°C° 0 mm 2 m/s 718 mmHg 41%
    17:00 +24°C° 0 mm 2 m/s 718 mmHg 47%
    18:00 +23°C° 0 mm 2 m/s 718 mmHg 54%
    19:00 +21°C° 0 mm 1 m/s 717 mmHg 60%
    20:00 +20°C° 0 mm 1 m/s 717 mmHg 62%
    21:00 +18°C° 0 mm 1 m/s 717 mmHg 65%
    22:00 +16°C° 0 mm 1 m/s 717 mmHg 67%
    23:00 +16°C° 0 mm 1 m/s 717 mmHg 68%

    21 Julho, Sábado

    Tempo Temperatura Precipitação Vento Pressão Humidade
    00:00 +15°C° 0 mm 1 m/s 717 mmHg 68%
    01:00 +15°C° 0 mm 1 m/s 717 mmHg 69%
    02:00 +15°C° 0 mm 1 m/s 717 mmHg 69%
    03:00 +14°C° 0 mm 1 m/s 716 mmHg 70%
    04:00 +14°C° 0 mm 1 m/s 716 mmHg 71%
    05:00 +16°C° 0 mm 1 m/s 716 mmHg 68%
    06:00 +18°C° 0 mm 1 m/s 717 mmHg 66%
    07:00 +20°C° 0 mm 1 m/s 717 mmHg 63%
    08:00 +21°C° 0 mm 1 m/s 717 mmHg 60%
    09:00 +23°C° 0 mm 2 m/s 717 mmHg 56%
    10:00 +24°C° 0 mm 2 m/s 717 mmHg 53%
    11:00 +25°C° 0 mm 2 m/s 717 mmHg 51%
    12:00 +25°C° 0 mm 2 m/s 717 mmHg 50%
    13:00 +25°C° 0 mm 2 m/s 716 mmHg 48%
    14:00 +25°C° 0 mm 2 m/s 716 mmHg 50%
    15:00 +25°C° 0 mm 2 m/s 716 mmHg 51%
    16:00 +25°C° 0 mm 2 m/s 716 mmHg 52%
    17:00 +24°C° 0 mm 2 m/s 716 mmHg 58%
    18:00 +23°C° 0 mm 2 m/s 716 mmHg 64%
    19:00 +21°C° 0 mm 2 m/s 715 mmHg 69%
    20:00 +19°C° 0 mm 2 m/s 715 mmHg 72%
    21:00 +18°C° 0 mm 2 m/s 715 mmHg 75%
    22:00 +18°C° 0 mm 1 m/s 715 mmHg 78%
    23:00 +18°C° 0 mm 1 m/s 715 mmHg 79%

    22 Julho, Domingo

    Tempo Temperatura Precipitação Vento Pressão Humidade
    00:00 +16°C° 0 mm 1 m/s 715 mmHg 79%
    01:00 +16°C° 0 mm 1 m/s 715 mmHg 79%
    02:00 +16°C° 0,3 mm 1 m/s 715 mmHg 80%
    03:00 +16°C° 0,3 mm 1 m/s 715 mmHg 82%
    04:00 +16°C° 0,3 mm 1 m/s 715 mmHg 83%
    05:00 +16°C° 0,3 mm 2 m/s 716 mmHg 84%
    06:00 +16°C° 0,3 mm 2 m/s 716 mmHg 84%
    07:00 +16°C° 0,3 mm 2 m/s 716 mmHg 85%
    08:00 +17°C° 0,4 mm 3 m/s 716 mmHg 85%
    09:00 +17°C° 0,4 mm 3 m/s 716 mmHg 85%
    10:00 +17°C° 0,4 mm 3 m/s 717 mmHg 85%
    11:00 +17°C° 0,2 mm 3 m/s 717 mmHg 83%
    12:00 +18°C° 0,2 mm 3 m/s 717 mmHg 81%
    13:00 +18°C° 0,2 mm 3 m/s 717 mmHg 79%
    14:00 +19°C° 0,1 mm 3 m/s 717 mmHg 76%
    15:00 +19°C° 0,1 mm 3 m/s 717 mmHg 73%
    16:00 +20°C° 0,1 mm 2 m/s 717 mmHg 70%
    17:00 +19°C° 0,1 mm 2 m/s 717 mmHg 72%
    18:00 +19°C° 0,1 mm 2 m/s 717 mmHg 74%
    19:00 +19°C° 0,1 mm 1 m/s 717 mmHg 76%
    20:00 +18°C° 0 mm 1 m/s 717 mmHg 79%
    21:00 +16°C° 0 mm 1 m/s 717 mmHg 83%
    22:00 +14°C° 0 mm 2 m/s 718 mmHg 86%
    23:00 +14°C° 0 mm 2 m/s 718 mmHg 87%
    Mostrar mais